Weather History for Austin Bergstrom, TX

Change the Weather History Date:

Tuesday, March 26, 2013

  Actual Average Record
Temperature  
Mean Temperature 45 °F 62 °F  
Max Temperature 64 °F 75 °F 91 °F (1950)
Min Temperature 26 °F 49 °F 26 °F (2013)
Degree Days  
Heating Degree Days 20 5  
Month to date heating degree days 203 201  
Since 1 July heating degree days 1518 1816  
Cooling Degree Days 0 2  
Month to date cooling degree days 36 31  
Year to date cooling degree days 64 47  
Moisture  
Dew Point 22 °F    
Average Humidity 55    
Maximum Humidity 92    
Minimum Humidity 17    
Precipitation  
Precipitation 0.00 in 0.08 in 2.26 in (1951)
Month to date precipitation 1.37 2.18  
Year to date precipitation 4.72 6.78  
Snow  
Snow 0.00 in - - ()
Month to date snowfall 0.0  
Since 1 July snowfall T  
Snow Depth 0.00 in    
Sea Level Pressure  
Sea Level Pressure 30.41 in    
Wind  
Wind Speed 4 mph (ENE)    
Max Wind Speed 10 mph    
Max Gust Speed 15 mph    
Visibility 10 miles    
Events      
T = Trace of Precipitation, MM = Missing Value Source: NWS Daily Summary

Daily Weather History Graph

Daily Weather History Graph

Search for Another Location

Airport:

Trip Planner

Search our weather history database for the weather conditions in past years. The results will help you decide how hot, cold, wet, or windy it might be!

Date:

Astronomy

Mar. 26, 2013 Rise Set
Actual Time 7:26 AM CDT 7:46 PM CDT
Civil Twilight 7:02 AM CDT 8:10 PM CDT
Nautical Twilight 6:34 AM CDT 8:38 PM CDT
Astronomical Twilight 6:06 AM CDT 9:06 PM CDT
Moon 7:22 PM CDT (3/26) 6:43 AM CDT (3/26)
Length of Visible Light 13h 07m
Length of Day
12h 19m
Waxing Gibbous, 99% of the Moon is Illuminated
Mar 26
Waxing Gibbous
Mar 27
Full
Apr 2
Last Quarter
Apr 10
New
Apr 18
First Quarter

Hourly Weather History & Observations

Time (CDT) Temp. Windchill Dew Point Humidity Pressure Visibility Wind Dir Wind Speed Gust Speed Precip Events Conditions
12:53 AM 35.1 °F - 26.1 °F 70% 30.42 in 10.0 mi Calm Calm - N/A   Mostly Cloudy
1:53 AM 34.0 °F - 27.0 °F 75% 30.43 in 10.0 mi Calm Calm - N/A   Scattered Clouds
2:53 AM 30.9 °F 27.5 °F 26.1 °F 82% 30.43 in 10.0 mi NNE 3.5 mph - N/A   Partly Cloudy
3:53 AM 30.9 °F 27.5 °F 26.1 °F 82% 30.42 in 10.0 mi NNW 3.5 mph - N/A   Partly Cloudy
4:53 AM 28.0 °F - 26.1 °F 92% 30.43 in 10.0 mi Calm Calm - N/A   Partly Cloudy
5:53 AM 28.0 °F - 25.0 °F 88% 30.45 in 10.0 mi Calm Calm - N/A   Partly Cloudy
6:53 AM 28.9 °F - 26.1 °F 89% 30.46 in 10.0 mi Calm Calm - N/A   Clear
7:53 AM 28.0 °F - 25.0 °F 88% 30.49 in 10.0 mi Calm Calm - N/A   Clear
8:53 AM 43.0 °F 40.3 °F 28.9 °F 58% 30.50 in 10.0 mi North 4.6 mph - N/A   Partly Cloudy
9:53 AM 46.9 °F - 19.9 °F 34% 30.51 in 10.0 mi ENE 5.8 mph - N/A   Partly Cloudy
10:53 AM 50.0 °F - 19.0 °F 29% 30.50 in 10.0 mi Variable 5.8 mph - N/A   Partly Cloudy
11:53 AM 55.0 °F - 21.0 °F 27% 30.49 in 10.0 mi Variable 4.6 mph - N/A   Partly Cloudy
12:53 PM 59.0 °F - 21.0 °F 23% 30.46 in 10.0 mi WSW 3.5 mph - N/A   Partly Cloudy
1:53 PM 59.0 °F - 21.0 °F 23% 30.43 in 10.0 mi Calm Calm - N/A   Clear
2:53 PM 63.0 °F - 21.0 °F 20% 30.39 in 10.0 mi Variable 3.5 mph - N/A   Clear
3:53 PM 63.0 °F - 19.0 °F 18% 30.36 in 10.0 mi NE 4.6 mph - N/A   Clear
4:53 PM 63.0 °F - 19.0 °F 18% 30.33 in 10.0 mi NNE 5.8 mph - N/A   Clear
5:53 PM 63.0 °F - 17.1 °F 17% 30.32 in 10.0 mi Calm Calm - N/A   Clear
6:53 PM 62.1 °F - 19.0 °F 19% 30.31 in 10.0 mi SE 4.6 mph - N/A   Partly Cloudy
7:53 PM 57.0 °F - 19.9 °F 24% 30.31 in 10.0 mi East 5.8 mph - N/A   Partly Cloudy
8:53 PM 53.1 °F - 23.0 °F 31% 30.31 in 10.0 mi East 5.8 mph - N/A   Clear
9:53 PM 50.0 °F - 24.1 °F 36% 30.32 in 10.0 mi ESE 4.6 mph - N/A   Clear
10:53 PM 44.1 °F 40.8 °F 26.1 °F 49% 30.34 in 10.0 mi SE 5.8 mph - N/A   Clear
11:53 PM 46.9 °F - 24.1 °F 41% 30.33 in 10.0 mi SE 4.6 mph - N/A   Clear